Vertical_Velocity
21 -12 -1 -2 -5 -2 2 2 4 0 -0 -0 6 -0 2 -2 -3 5 -3 -1 -0 1 -3 -4 0 -1 1 1 1 2 0 -1 0 -1 -2 -2 -2 -4 -4 -3 -2 -3 -6
0 -4 -1 -6 3 1 0 -1 10 -0 -2 3 5 3 -1 -3 -2 3 0 -0 3 -3 -5 1 -1 -1 0 1 1 1 0 1 -0 1 -1 2 -1 -1 -4 -6 -2 -1 -4
3 -2 -1 8 -4 -0 7 5 1 5 -0 -4 1 2 -3 -1 4 4 -0 -3 -5 -2 1 0 -1 0 0 0 1 1 1 2 -0 -2 -2 2 4 7 -5 -6 -5 -4 -6
3 1 2 1 10 13 -7 -5 2 -0 -2 -1 3 6 -2 0 3 -2 -2 -1 -0 0 -0 -0 -0 2 -1 -1 1 0 0 0 0 0 -2 -3 -2 2 18 -0 -11 -3 -8
0 -0 2 8 10 -13 5 -2 -3 -3 -4 2 -1 -2 -2 -2 -0 -1 -2 -0 0 1 2 0 0 0 -2 0 1 0 -0 -1 -1 -1 -2 -4 -3 -5 -1 24 11 2 -5
5 4 5 -2 -4 -6 -7 1 0 2 -3 -0 2 2 0 -0 1 -1 1 -0 -0 0 2 -1 1 -1 -0 -0 -0 1 -0 -1 -1 -1 -3 -3 -2 -2 -8 1 0 16 15
-4 -1 -2 -0 1 2 6 0 1 1 2 2 3 -1 1 -1 -2 -3 -1 1 1 1 1 -2 2 -3 1 -0 1 1 1 -0 0 -2 -4 -3 -4 -3 -4 -6 -1 -3 10
3 0 3 3 2 5 3 0 -2 2 2 1 2 -2 2 -2 -5 -5 1 0 0 -2 1 2 -1 1 1 1 0 -0 -0 -1 -2 -1 -0 -4 -2 -3 -6 -4 -10 6 -5
6 7 5 2 6 3 5 6 1 2 0 0 -3 -2 3 -3 3 -1 -3 0 -0 -0 2 -1 0 1 0 1 -1 0 0 -3 -1 -2 -3 -4 -4 -6 -5 -5 -8 -15 -12
-7 -0 -0 3 2 3 2 -2 2 5 1 -7 -3 -5 -3 -0 2 -2 -0 -0 2 2 -1 0 2 0 1 1 -1 -1 -1 -2 -1 -3 -5 -3 -1 -7 -5 -2 -6 -9 -13
-1 -7 -3 -1 -0 -1 2 3 2 2 3 -1 2 1 -2 1 -2 0 2 4 3 2 -1 0 1 1 2 0 1 -1 -0 -3 -3 -1 -3 -7 -2 -5 -2 -4 -6 -3 -12
2 3 3 1 2 2 2 4 -1 2 2 -3 -2 -1 1 -1 -2 1 2 -0 1 2 2 1 1 2 1 1 -0 -0 -1 -2 -3 -3 -2 -3 -1 -4 -4 -4 -3 -3 -4
-5 -2 -2 -2 -2 -2 -5 -3 0 3 -1 -0 2 2 -1 -3 2 3 2 3 3 2 1 2 2 3 2 0 -1 -1 -1 -1 -3 -3 -2 -3 -3 -3 -2 -4 -4 -4 -3
-2 -3 -3 -2 -3 -2 0 -1 -3 0 1 1 1 -0 -2 0 1 1 2 -0 -0 1 2 2 1 1 -1 0 -0 0 -0 -2 -3 0 -0 -4 -4 -1 -2 -2 -4 -3 1
3 7 4 -1 0 1 -1 -0 2 1 1 2 3 5 3 5 5 2 2 1 3 2 1 1 1 1 0 -1 1 -0 -1 -2 -2 -2 -2 -3 -4 -2 -3 -2 2 -2 -5
4 -2 0 2 -2 -4 -1 -3 -4 -3 -2 1 3 3 4 3 2 2 3 2 3 2 0 2 3 0 -0 -1 0 0 -1 -2 -3 -3 -4 -3 -5 -4 -6 -3 -4 -7 -7
-3 -3 4 4 6 4 -1 -1 0 -3 -3 -1 -0 0 -1 3 4 2 3 4 2 2 3 4 2 -0 1 1 0 -1 -3 -4 -2 -3 2 -1 -6 -6 -2 3 1 -1 1
-1 -0 -0 1 2 -1 0 -1 -2 2 3 1 2 3 3 1 1 3 2 2 1 2 2 2 1 0 1 -1 -1 -2 -5 -2 -3 -3 -4 -1 3 -4 -4 4 2 2 -3
-2 3 3 -4 2 2 2 2 3 1 2 7 4 6 5 0 0 -1 -1 -0 2 2 2 2 -1 -1 -1 -1 -2 -2 -2 -2 -2 -5 -6 -1 -2 0 -4 0 -2 4 0
-7 -0 1 -9 1 -3 -0 4 -1 -2 1 0 3 1 -3 -0 1 1 3 3 3 3 2 -0 0 -1 -1 -1 -1 1 -3 -1 -1 -6 -4 -7 -4 -3 -5 -3 -5 1 -4
0 1 1 -3 -4 -4 1 -1 0 1 -0 3 4 3 4 5 1 3 3 3 2 1 2 -0 -1 -0 -1 -3 -2 0 1 1 -4 -3 -4 -5 -2 -2 -2 -3 -1 -4 -5
6 7 4 -1 -2 -3 1 3 4 5 1 -0 0 4 1 3 2 2 2 0 -0 -1 -1 -1 -1 -1 -2 2 1 -0 1 -0 -2 -1 -1 2 2 0 2 0 -5 -4 -3
10 2 4 3 2 -0 -3 8 6 3 0 2 8 9 7 3 3 3 1 0 -1 -1 -1 -1 0 -0 1 2 0 -1 -4 -2 -4 -1 1 1 -0 2 -2 -9 -5 0 -3
6 22 15 5 2 7 2 6 9 10 9 8 8 3 2 1 7 3 1 -1 -1 -2 -1 0 0 2 3 1 1 -3 -2 -4 -0 -0 -4 -2 -2 -5 -6 -7 -6 -7 -5
11 9 11 14 11 9 2 3 1 -0 2 4 4 6 6 6 6 -0 -0 -1 -1 -0 2 2 3 3 1 -1 -1 2 -2 -4 -1 -3 -4 -2 -6 -4 -4 -0 -4 -2 0
18 17 11 10 10 6 2 2 3 2 3 5 9 7 7 4 1 -2 -2 -3 -1 -0 2 2 2 1 0 1 -1 -1 -1 -0 -1 -2 -0 -4 -3 -2 -3 -0 3 -3 -0
Height
5705 5708 5716 5720 5725 5727 5734 5740 5746 5750 5754 5756 5760 5761 5763 5764 5767 5769 5771 5773 5776 5776 5774 5774 5773 5771 5770 5769 5769 5768 5766 5764 5762 5758 5756 5753 5750 5746 5741 5736 5732 5729 5724
5694 5700 5708 5713 5717 5722 5728 5732 5738 5742 5745 5748 5750 5752 5754 5757 5760 5763 5765 5766 5768 5767 5767 5767 5765 5763 5762 5761 5760 5759 5757 5755 5753 5750 5748 5745 5742 5737 5732 5727 5722 5717 5712
5688 5694 5699 5705 5709 5714 5720 5725 5729 5732 5735 5738 5741 5744 5746 5750 5754 5756 5755 5757 5759 5760 5760 5758 5756 5755 5754 5753 5751 5750 5748 5746 5742 5740 5737 5735 5733 5730 5724 5717 5711 5706 5700
5679 5685 5691 5697 5702 5707 5712 5715 5717 5724 5725 5729 5733 5735 5739 5743 5745 5745 5746 5750 5752 5752 5751 5749 5747 5746 5745 5744 5742 5740 5739 5736 5732 5729 5726 5721 5718 5715 5715 5709 5701 5694 5685
5669 5676 5682 5688 5693 5697 5703 5706 5709 5712 5715 5721 5724 5727 5731 5733 5735 5737 5738 5741 5743 5743 5742 5740 5739 5737 5736 5734 5733 5731 5729 5725 5722 5718 5714 5709 5706 5701 5696 5695 5691 5683 5672
5660 5667 5672 5676 5681 5685 5690 5695 5700 5705 5708 5712 5715 5718 5721 5724 5726 5727 5729 5732 5732 5733 5732 5731 5730 5729 5727 5726 5724 5721 5718 5714 5710 5706 5701 5697 5693 5688 5682 5677 5672 5669 5665
5650 5657 5663 5668 5672 5676 5681 5687 5693 5696 5700 5703 5706 5709 5711 5715 5717 5718 5721 5722 5722 5723 5722 5722 5721 5719 5717 5715 5714 5711 5707 5703 5699 5694 5690 5685 5680 5674 5667 5661 5657 5652 5646
5639 5645 5650 5656 5662 5667 5672 5678 5682 5686 5689 5693 5696 5699 5702 5705 5707 5709 5710 5711 5711 5711 5712 5712 5710 5709 5707 5706 5703 5700 5696 5692 5688 5683 5677 5671 5666 5660 5653 5647 5641 5637 5630
5629 5635 5641 5646 5651 5657 5663 5667 5671 5675 5678 5683 5686 5689 5693 5695 5697 5698 5699 5700 5700 5701 5702 5701 5700 5699 5697 5695 5692 5689 5685 5681 5676 5671 5665 5659 5653 5645 5639 5632 5624 5616 5613
5618 5624 5629 5634 5640 5645 5650 5655 5660 5664 5669 5673 5676 5679 5683 5685 5686 5687 5689 5690 5690 5691 5690 5690 5689 5687 5686 5684 5681 5678 5674 5670 5665 5660 5654 5646 5640 5633 5625 5618 5610 5602 5595
5605 5611 5617 5622 5628 5634 5640 5645 5649 5653 5658 5662 5666 5670 5672 5674 5675 5677 5679 5680 5680 5679 5679 5679 5678 5676 5675 5673 5670 5667 5663 5658 5653 5648 5641 5635 5628 5620 5612 5604 5596 5588 5579
5591 5598 5604 5610 5616 5622 5628 5633 5638 5642 5647 5651 5655 5658 5661 5661 5663 5666 5668 5668 5668 5668 5668 5667 5667 5666 5664 5661 5658 5655 5651 5647 5641 5635 5629 5622 5614 5607 5599 5592 5583 5575 5564
5579 5586 5592 5598 5604 5610 5615 5621 5626 5631 5635 5639 5643 5647 5649 5650 5653 5655 5656 5656 5656 5657 5656 5657 5656 5654 5652 5649 5647 5644 5640 5635 5629 5623 5616 5608 5602 5595 5587 5579 5570 5561 5552
5569 5575 5581 5586 5591 5597 5603 5609 5615 5619 5624 5628 5631 5634 5636 5639 5641 5642 5643 5644 5645 5645 5645 5645 5645 5643 5641 5639 5636 5631 5626 5621 5617 5610 5603 5596 5590 5583 5576 5567 5557 5548 5540
5559 5565 5570 5576 5581 5586 5591 5597 5602 5607 5612 5616 5619 5622 5625 5628 5630 5631 5632 5633 5633 5633 5633 5633 5633 5632 5630 5627 5623 5618 5613 5608 5604 5598 5591 5585 5579 5571 5563 5554 5545 5535 5526
5544 5551 5559 5564 5569 5574 5580 5585 5590 5596 5601 5604 5608 5611 5613 5615 5617 5618 5620 5620 5621 5621 5621 5621 5622 5621 5619 5615 5610 5605 5601 5597 5591 5586 5579 5574 5566 5558 5550 5540 5531 5521 5512
5534 5541 5547 5552 5558 5563 5567 5572 5578 5583 5589 5593 5596 5599 5601 5603 5605 5606 5607 5608 5609 5610 5611 5611 5611 5609 5606 5601 5597 5593 5589 5584 5579 5574 5570 5562 5555 5547 5540 5532 5521 5510 5498
5520 5528 5533 5539 5545 5550 5556 5562 5566 5571 5576 5580 5584 5587 5588 5589 5591 5594 5596 5598 5599 5599 5600 5600 5599 5596 5592 5589 5585 5581 5576 5571 5567 5564 5559 5552 5544 5536 5529 5521 5512 5500 5488
5509 5516 5522 5527 5533 5539 5544 5550 5554 5558 5562 5566 5570 5574 5576 5579 5581 5583 5584 5586 5587 5587 5587 5587 5585 5583 5581 5577 5574 5569 5564 5560 5557 5552 5546 5540 5533 5525 5516 5509 5500 5490 5478
5496 5504 5510 5518 5523 5529 5534 5539 5544 5547 5550 5554 5558 5561 5564 5567 5569 5571 5573 5574 5574 5574 5574 5573 5572 5570 5568 5565 5561 5557 5553 5550 5546 5540 5534 5528 5522 5513 5505 5496 5488 5480 5470
5481 5490 5497 5504 5511 5519 5524 5528 5532 5535 5538 5542 5545 5549 5552 5555 5557 5559 5560 5561 5561 5561 5561 5559 5558 5558 5556 5552 5549 5546 5543 5539 5535 5530 5524 5517 5510 5502 5493 5484 5477 5468 5460
5470 5477 5485 5491 5499 5505 5511 5515 5521 5525 5527 5530 5534 5537 5539 5542 5545 5547 5547 5548 5548 5548 5547 5547 5546 5545 5542 5539 5536 5534 5533 5530 5525 5520 5514 5506 5499 5491 5482 5474 5466 5457 5448
5461 5468 5473 5480 5485 5491 5497 5503 5507 5512 5517 5520 5522 5524 5526 5529 5532 5532 5534 5534 5535 5534 5535 5534 5532 5530 5529 5527 5525 5524 5523 5519 5515 5509 5502 5495 5486 5478 5469 5462 5455 5445 5436
5449 5456 5462 5467 5474 5480 5484 5490 5494 5498 5503 5507 5509 5511 5513 5516 5517 5519 5520 5520 5521 5522 5521 5520 5518 5518 5517 5515 5515 5514 5512 5509 5503 5496 5491 5483 5475 5468 5461 5452 5442 5433 5423
5438 5444 5449 5455 5461 5465 5470 5475 5480 5484 5488 5492 5495 5498 5501 5503 5504 5505 5506 5507 5507 5507 5507 5506 5506 5506 5506 5506 5505 5503 5501 5497 5490 5485 5479 5471 5465 5458 5451 5441 5432 5423 5413
5431 5435 5440 5445 5450 5455 5461 5466 5470 5474 5477 5481 5484 5486 5487 5488 5489 5491 5493 5494 5495 5495 5495 5495 5496 5496 5496 5495 5494 5492 5489 5484 5478 5474 5468 5462 5455 5449 5443 5434 5425 5414 5403